Grey Islet, British Columbia

9:01 AM PDT on April 30, 2017 (GMT -0700)
Grey Islet

Weather History for CWEK - January, 2013

Change the Weather History Date:

Tuesday, January 1, 2013

  Actual Average Record
Temperature  
Mean Temperature 42 °F -  
Max Temperature 46 °F - - ()
Min Temperature 38 °F - - ()
Degree Days  
Heating Degree Days 23    
Moisture  
Dew Point 34 °F    
Average Humidity 77    
Maximum Humidity 93    
Minimum Humidity 54    
Precipitation  
Precipitation 0.00 in - - ()
Sea Level Pressure  
Sea Level Pressure 30.19 in    
Wind  
Wind Speed 22 mph ()    
Max Wind Speed 36 mph    
Max Gust Speed 43 mph    
T = Trace of Precipitation, MM = Missing Value Source: Averaged Metar Reports

Daily Weather History Graph

Daily Weather History Graph

Search for Another Location

Airport or City:

Trip Planner

Search our weather history database for the weather conditions in past years. The results will help you decide how hot, cold, wet, or windy it might be!

Date:

Astronomy

Jan. 01, 2013 Rise Set
Actual Time 9:04 AM PST 4:28 PM PST
Civil Twilight 8:20 AM PST 5:12 PM PST
Nautical Twilight 7:34 AM PST 5:59 PM PST
Astronomical Twilight 6:50 AM PST 6:43 PM PST
Moon 9:56 PM PST (1/1) 10:35 AM PST (1/1)
Length of Visible Light 8h 52m
Length of Day
7h 23m
Waning Gibbous, 82% of the Moon is Illuminated
Jan 1
Waning Gibbous
Jan 4
Last Quarter
Jan 11
New
Jan 18
First Quarter
Jan 26
Full

Hourly Weather History & Observations

Time (PST) Temp. Windchill Dew Point Humidity Pressure Visibility Wind Dir Wind Speed Gust Speed Precip Events Conditions
12:00 AM 39.6 °F 30.3 °F 36.9 °F 90% 30.37 in - ENE 18.4 mph - N/A   Unknown
1:00 AM 39.2 °F 29.0 °F 36.5 °F 90% 30.36 in - ENE 21.9 mph - N/A   Unknown
2:00 AM 39.2 °F 28.7 °F 37.2 °F 93% 30.37 in - ENE 23.0 mph - N/A   Unknown
3:00 AM 39.0 °F 28.5 °F 36.1 °F 89% 30.35 in - ENE 23.0 mph - N/A   Unknown
4:00 AM 39 °F - 36 °F 84% 30.33 in - ENE 28.8 mph - -  
4:00 AM 38.8 °F 27.1 °F 36.0 °F 89% 30.33 in - ENE 28.8 mph - N/A   Unknown
5:00 AM 39.2 °F 27.4 °F 35.4 °F 86% 30.32 in - ENE 29.9 mph - N/A   Unknown
6:00 AM 39.2 °F 27.0 °F 34.9 °F 84% 30.30 in - ENE 32.2 mph 39.1 mph N/A   Unknown
7:00 AM 39.6 °F 28.1 °F 34.5 °F 82% 30.30 in - ENE 28.8 mph - N/A   Unknown
8:00 AM 39.4 °F 27.3 °F 34.2 °F 82% 30.25 in - ENE 32.2 mph 38.0 mph N/A   Unknown
9:00 AM 39.4 °F 26.7 °F 34.2 °F 82% 30.23 in - ENE 35.7 mph 42.6 mph N/A   Unknown
10:00 AM 40 °F - 33 °F 69% 30.23 in - ENE 33.4 mph - -  
10:00 AM 39.6 °F 27.3 °F 33.4 °F 79% 30.23 in - ENE 33.4 mph 39.1 mph N/A   Unknown
11:00 AM 39.9 °F 27.6 °F 34.2 °F 80% 30.21 in - ENE 34.5 mph 40.3 mph N/A   Unknown
12:00 PM 39.7 °F 27.8 °F 33.6 °F 79% 30.16 in - ENE 32.2 mph 39.1 mph N/A   Unknown
1:00 PM 41.2 °F 31.6 °F 32.0 °F 70% 30.17 in - ENE 21.9 mph 31.1 mph N/A   Unknown
2:00 PM 41.9 °F 36.9 °F 31.5 °F 66% 30.16 in - ESE 8.1 mph - N/A   Unknown
3:00 PM 40.6 °F 31.2 °F 31.3 °F 69% 30.14 in - ENE 20.7 mph 26.5 mph N/A   Unknown
4:00 PM 41 °F - 34 °F 68% 30.12 in - ENE 21.9 mph - -  
4:00 PM 41.0 °F 31.4 °F 34.2 °F 77% 30.12 in - ENE 21.9 mph - N/A   Unknown
5:00 PM 42.1 °F 34.2 °F 31.3 °F 66% 30.11 in - East 16.1 mph 23.0 mph N/A   Unknown
6:00 PM 41.4 °F 33.3 °F 33.4 °F 73% 30.09 in - ENE 16.1 mph - N/A   Unknown
7:00 PM 41.0 °F 32.2 °F 31.3 °F 68% 30.06 in - ENE 18.4 mph - N/A   Unknown
8:00 PM 41.2 °F 34.1 °F 33.1 °F 73% 30.06 in - East 12.7 mph - N/A   Unknown
9:00 PM 45.7 °F 35.6 °F 34.0 °F 64% 30.02 in - SSE 34.5 mph - N/A   Unknown
10:00 PM 46 °F - 35 °F 54% 30.01 in - South 35.7 mph - -  
10:00 PM 46.2 °F 36.2 °F 34.7 °F 64% 30.01 in - South 35.7 mph - N/A   Unknown
11:00 PM 42.3 °F 35.1 °F 34.3 °F 74% 30.04 in - ESE 13.8 mph - N/A   Unknown